Location: Newark
(20.0000°S, 47.0000°E)
Time: 11:19:55
(UTC+00:00)

Envisat - Pass Details

Date: 18 June 2019
Orbit: 764 x 766 km, 98.1° (Epoch: 20 July)

Event Time Altitude Azimuth Distance (km) Brightness Sun altitude
Exits shadow 15:37:31 22° 148° (SSE) 1,633 4.3 -17.6°
Maximum altitude 15:40:38 53° 80° (E) 942 3.1 -18.3°
Drops below altitude 10° 15:45:34 10° 3° (N) 2,292 5.6 -19.4°
Sets 15:47:54 0° 358° (N) 3,212 6.5 -19.9°
